Weather History for Shelton, WA

Change the Weather History Date:

Saturday, August 24, 2013

  Actual Average Record
Temperature  
Mean Temperature 65 °F -  
Max Temperature 75 °F 74 °F 93 °F (1958)
Min Temperature 55 °F 52 °F 39 °F (2003)
Growing Degree Days 15 (Base 50)    
Moisture  
Dew Point 54 °F    
Average Humidity 76    
Maximum Humidity 94    
Minimum Humidity 41    
Precipitation  
Precipitation 0.00 in - - ()
Sea Level Pressure  
Sea Level Pressure 29.88 in    
Wind  
Wind Speed 9 mph (SW)    
Max Wind Speed 17 mph    
Max Gust Speed 21 mph    
Visibility 10 miles    
Events      
Averages and records for this station are not official NWS values.
T = Trace of Precipitation, MM = Missing Value Source: NWS Daily Summary

Daily Weather History Graph

Daily Weather History Graph

Search for Another Location

Airport:

Trip Planner

Search our weather history database for the weather conditions in past years. The results will help you decide how hot, cold, wet, or windy it might be!

Date:

Astronomy

Aug. 24, 2013 Rise Set
Actual Time 6:21 AM PDT 8:07 PM PDT
Civil Twilight 5:49 AM PDT 8:39 PM PDT
Nautical Twilight 5:09 AM PDT 9:18 PM PDT
Astronomical Twilight 4:25 AM PDT 10:02 PM PDT
Moon 9:42 PM PDT (8/24) 10:48 AM PDT (8/24)
Length of Visible Light 14h 50m
Length of Day
13h 45m
Waning Gibbous, 83% of the Moon is Illuminated
Aug 24
Waning Gibbous
Aug 28
Last Quarter
Sep 5
New
Sep 12
First Quarter
Sep 19
Full

Hourly Weather History & Observations

Time (PDT) Temp. Dew Point Humidity Pressure Visibility Wind Dir Wind Speed Gust Speed Precip Events Conditions
12:16 AM 57.2 °F 55.4 °F 94% 29.88 in 10.0 mi SW 11.5 mph - N/A   Overcast
12:38 AM 59.0 °F 55.4 °F 88% 29.88 in 10.0 mi SW 11.5 mph - N/A   Overcast
12:53 AM 59.0 °F 55.9 °F 90% 29.88 in 10.0 mi SW 12.7 mph - N/A   Overcast
1:27 AM 59.0 °F 55.4 °F 88% 29.88 in 10.0 mi SW 11.5 mph - N/A   Overcast
1:53 AM 59.0 °F 57.0 °F 93% 29.88 in 10.0 mi SW 9.2 mph - N/A   Overcast
2:12 AM 59.0 °F 55.4 °F 88% 29.89 in 10.0 mi SW 10.4 mph - N/A   Overcast
2:53 AM 59.0 °F 55.9 °F 90% 29.89 in 10.0 mi SW 10.4 mph - N/A   Overcast
3:53 AM 57.9 °F 55.9 °F 93% 29.89 in 10.0 mi WSW 3.5 mph - N/A   Overcast
4:34 AM 57.2 °F 55.4 °F 94% 29.88 in 10.0 mi WNW 4.6 mph - N/A   Overcast
4:53 AM 57.9 °F 55.9 °F 93% 29.88 in 10.0 mi West 6.9 mph - N/A   Overcast
5:53 AM 57.9 °F 55.9 °F 93% 29.88 in 10.0 mi WSW 5.8 mph - N/A   Overcast
6:53 AM 57.9 °F 55.9 °F 93% 29.88 in 10.0 mi SSW 5.8 mph - N/A   Overcast
7:53 AM 57.9 °F 55.9 °F 93% 29.90 in 10.0 mi SW 9.2 mph - N/A   Overcast
8:53 AM 60.1 °F 55.0 °F 83% 29.89 in 10.0 mi WSW 6.9 mph - N/A   Overcast
9:31 AM 60.8 °F 55.4 °F 82% 29.90 in 10.0 mi SSW 10.4 mph - N/A   Overcast
9:53 AM 62.1 °F 55.9 °F 80% 29.89 in 10.0 mi SSW 9.2 mph - N/A   Overcast
10:53 AM 64.0 °F 55.0 °F 73% 29.90 in 10.0 mi Variable 4.6 mph - N/A   Mostly Cloudy
11:06 AM 64.4 °F 55.4 °F 73% 29.89 in 10.0 mi SSW 8.1 mph - N/A   Scattered Clouds
11:15 AM 66.2 °F 55.4 °F 68% 29.89 in 10.0 mi West 9.2 mph - N/A   Mostly Cloudy
11:27 AM 66.2 °F 53.6 °F 64% 29.89 in 10.0 mi SSW 6.9 mph - N/A   Partly Cloudy
11:53 AM 70.0 °F 54.0 °F 57% 29.88 in 10.0 mi Variable 6.9 mph - N/A   Scattered Clouds
12:53 PM 70.0 °F 54.0 °F 57% 29.88 in 10.0 mi WSW 8.1 mph - N/A   Overcast
1:53 PM 72.0 °F 50.0 °F 46% 29.87 in 10.0 mi SW 10.4 mph 18.4 mph N/A   Partly Cloudy
2:53 PM 73.9 °F 50.0 °F 43% 29.86 in 10.0 mi West 9.2 mph 17.3 mph N/A   Partly Cloudy
3:53 PM 73.9 °F 48.9 °F 41% 29.86 in 10.0 mi SW 9.2 mph 17.3 mph N/A   Clear
4:53 PM 73.0 °F 51.1 °F 46% 29.86 in 10.0 mi SW 15.0 mph - N/A   Partly Cloudy
5:53 PM 72.0 °F 51.1 °F 48% 29.85 in 10.0 mi SW 17.3 mph 20.7 mph N/A   Clear
6:53 PM 69.1 °F 51.1 °F 53% 29.86 in 10.0 mi WSW 10.4 mph - N/A   Clear
7:53 PM 64.0 °F 53.1 °F 67% 29.86 in 10.0 mi SW 8.1 mph - N/A   Clear
8:53 PM 61.0 °F 54.0 °F 78% 29.88 in 10.0 mi WSW 9.2 mph - N/A   Clear
9:53 PM 59.0 °F 54.0 °F 83% 29.89 in 10.0 mi WSW 9.2 mph - N/A   Clear
10:53 PM 57.0 °F 53.1 °F 87% 29.91 in 10.0 mi WSW 6.9 mph - N/A   Clear
11:53 PM 55.0 °F 53.1 °F 93% 29.91 in 10.0 mi West 4.6 mph - N/A   Clear